TimeCDT,TemperatureF,Dew PointF,Humidity,Sea Level PressureIn,VisibilityMPH,Wind Direction,Wind SpeedMPH,Gust SpeedMPH,PrecipitationIn,Events,Conditions,WindDirDegrees,DateUTC
12:51 AM,84.0,69.1,61,29.99,10.0,South,9.2,16.1,N/A,,Clear,190,2013-07-26 05:51:00
1:51 AM,81.0,71.1,72,29.97,10.0,South,6.9,-,N/A,,Clear,180,2013-07-26 06:51:00
2:51 AM,80.1,71.1,74,29.98,10.0,Variable,5.8,-,N/A,,Clear,0,2013-07-26 07:51:00
3:51 AM,79.0,72.0,79,29.96,10.0,Variable,5.8,-,N/A,,Clear,0,2013-07-26 08:51:00
4:51 AM,78.1,73.0,84,29.98,10.0,SSW,4.6,-,N/A,,Partly Cloudy,200,2013-07-26 09:51:00
5:51 AM,77.0,73.0,88,29.97,10.0,South,3.5,-,N/A,,Clear,170,2013-07-26 10:51:00
6:51 AM,77.0,73.0,88,29.99,10.0,Variable,4.6,-,N/A,,Partly Cloudy,0,2013-07-26 11:51:00
7:25 AM,77.0,73.0,88,30.03,9.0,South,4.6,-,N/A,,Mostly Cloudy,190,2013-07-26 12:25:00
7:41 AM,78.1,73.0,84,30.03,9.0,South,3.5,-,N/A,,Overcast,190,2013-07-26 12:41:00
7:51 AM,78.1,73.0,84,29.98,9.0,Variable,3.5,-,N/A,,Overcast,0,2013-07-26 12:51:00
8:05 AM,78.1,73.0,84,30.03,10.0,Variable,4.6,-,N/A,,Overcast,0,2013-07-26 13:05:00
8:51 AM,79.0,72.0,79,30.01,10.0,SSW,6.9,-,N/A,,Mostly Cloudy,210,2013-07-26 13:51:00
9:17 AM,80.1,72.0,76,30.04,10.0,Variable,5.8,-,N/A,,Scattered Clouds,0,2013-07-26 14:17:00
9:51 AM,82.9,73.0,72,29.99,10.0,Variable,3.5,-,N/A,,Partly Cloudy,0,2013-07-26 14:51:00
10:51 AM,87.1,72.0,61,29.99,10.0,Variable,6.9,-,N/A,,Clear,0,2013-07-26 15:51:00
11:51 AM,91.0,72.0,53,29.99,10.0,Variable,5.8,-,N/A,,Clear,0,2013-07-26 16:51:00
12:51 PM,91.9,71.1,50,29.97,10.0,SW,5.8,-,N/A,,Clear,220,2013-07-26 17:51:00
1:51 PM,97.0,69.1,40,29.94,10.0,South,8.1,-,N/A,,Clear,170,2013-07-26 18:51:00
2:51 PM,98.1,66.0,35,29.91,10.0,SE,6.9,-,N/A,,Clear,130,2013-07-26 19:51:00
3:51 PM,96.1,64.0,35,29.90,10.0,Variable,4.6,-,N/A,,Clear,0,2013-07-26 20:51:00
4:51 PM,99.0,64.9,33,29.88,10.0,Variable,6.9,-,N/A,,Clear,0,2013-07-26 21:51:00
5:51 PM,98.1,64.0,33,29.86,10.0,South,6.9,-,N/A,,Clear,190,2013-07-26 22:51:00
6:51 PM,96.1,64.9,36,29.83,10.0,Variable,5.8,-,N/A,,Clear,0,2013-07-26 23:51:00
7:51 PM,95.0,66.9,40,29.84,10.0,Variable,5.8,-,N/A,,Clear,0,2013-07-27 00:51:00
8:51 PM,91.9,66.0,42,29.84,10.0,Variable,4.6,-,N/A,,Clear,0,2013-07-27 01:51:00
9:51 PM,91.0,70.0,50,29.86,10.0,South,8.1,-,N/A,,Clear,170,2013-07-27 02:51:00
10:51 PM,87.1,73.9,65,29.88,10.0,South,10.4,21.9,N/A,,Mostly Cloudy,190,2013-07-27 03:51:00
11:11 PM,86.0,73.9,67,29.91,10.0,South,8.1,18.4,N/A,Thunderstorm,Thunderstorm,190,2013-07-27 04:11:00
11:51 PM,79.0,75.9,90,29.96,1.5,North,13.8,21.9,0.15,Rain-Thunderstorm,Heavy Thunderstorms and Rain,10,2013-07-27 04:51:00